Weather observations for the past three days for
Port Isabel, Port Isabel-Cameron County Airport
Imperial (Metric)
Date Time (cdt) Wind (mph) Vis. (mi.) Weather Sky Cond. Temperature (ºF) Relative Humidity Wind Chill (°F) Heat Index (°F) Pressure Precipitation (in)
Air Dwpt 6 hour altimeter (in) sea level (mb) 1 hr 3 hr 6 hr
Max. Min.
15 19:53 E 15 10.00 Fair CLR 87.1 75 67% 97 29.81 1009.3
15 18:53 E 17 10.00 Fair CLR 88 73.9 93 88 63% 97 29.81 1009.2
15 17:53 E 16 10.00 Fair CLR 90 75 62% 100 29.81 1009.3
15 16:53 E 16 10.00 Fair CLR 91 75 59% 102 29.82 1009.6
15 15:53 E 16 G 24 10.00 Fair CLR 91.9 75 58% 103 29.83 1010.2
15 14:53 E 17 10.00 Fair CLR 91.9 75 58% 103 29.85 1010.8
15 13:53 E 14 G 21 10.00 Fair CLR 91 75 59% 102 29.87 1011.4
15 12:53 E 13 10.00 Fair CLR 91 75 91.9 79 59% 102 29.88 1011.7
15 11:53 E 12 10.00 Fair CLR 91 75 59% 102 29.88 1011.8
15 10:53 E 13 10.00 Fair CLR 90 75.9 63% 102 29.88 1011.9
15 09:53 SE 7 G 17 10.00 A Few Clouds FEW032 FEW049 89.1 75 63% 99 29.89 1012.0
15 08:53 SE 9 10.00 A Few Clouds FEW025 87.1 75.9 70% 98 29.89 1012.1
15 07:53 Calm 10.00 Fair CLR 82 77 85% 90 29.88 1011.7
15 06:53 Calm 10.00 Fair CLR 80.1 75.9 84.9 78.1 87% 85 29.87 1011.3
15 05:53 Calm 10.00 Fair CLR 80.1 75 85% 85 29.87 1011.4
15 04:53 S 5 10.00 Fair CLR 82 75.9 82% 89 29.87 1011.5
15 03:53 S 6 10.00 A Few Clouds FEW024 82.9 75.9 79% 91 29.87 1011.4
15 02:53 SE 7 10.00 A Few Clouds FEW023 84 75.9 77% 93 29.87 1011.5
15 01:53 SE 9 10.00 Fair CLR 84 77 80% 94 29.88 1011.6
15 00:53 SE 9 10.00 Fair CLR 84 75.9 89.1 84 77% 93 29.89 1012.1
14 23:53 E 10 10.00 Fair CLR 84.9 77 77% 95 29.89 1012.2
14 22:53 E 13 10.00 Fair CLR 86 75.9 72% 96 29.89 1012.0
14 21:53 E 14 10.00 Fair CLR 84.9 75 72% 93 29.87 1011.3
14 20:53 E 14 10.00 Fair CLR 86 75 70% 95 29.86 1010.9
14 19:53 E 15 10.00 Fair CLR 87.1 73.9 65% 95 29.84 1010.5
14 18:53 E 16 G 25 10.00 Fair CLR 89.1 73 93.9 89.1 59% 97 29.84 1010.5
14 17:53 E 16 10.00 Fair CLR 90 73.9 59% 99 29.84 1010.4
14 16:53 E 20 10.00 Fair CLR 91 75.9 61% 103 29.85 1010.7
14 15:53 NE 16 10.00 Fair CLR 91.9 75 58% 103 29.86 1011.0
14 14:53 E 15 10.00 Fair CLR 91.9 73.9 56% 102 29.87 1011.4
14 13:53 E 14 G 25 10.00 Fair CLR 91.9 75 58% 103 29.88 1011.8
14 12:53 E 14 G 23 10.00 Fair CLR 91 75.9 91.9 77 61% 103 29.89 1012.2
14 11:53 E 12 10.00 Fair CLR 91 73.9 57% 101 29.91 1012.6
14 10:53 E 10 10.00 Fair CLR 91 75 59% 102 29.91 1012.8
14 09:53 Calm 10.00 Partly Cloudy FEW028 SCT041 SCT050 88 75.9 68% 99 29.91 1012.9
14 08:53 Calm 10.00 Mostly Cloudy BKN031 84 75.9 77% 93 29.91 1012.9
14 07:53 Calm 10.00 Fair CLR 81 75.9 85% 87 29.9 1012.5
14 06:53 W 3 10.00 A Few Clouds FEW024 78.1 73.9 84 77 87% 81 29.89 1012.1
14 05:53 Calm 10.00 Fair CLR 79 75.9 90% 83 29.87 1011.5
14 04:53 Calm 10.00 Fair CLR 80.1 75 85% 85 29.87 1011.3
14 03:53 S 5 10.00 Fair CLR 81 75 82% 87 29.87 1011.5
14 02:53 SE 6 10.00 Fair CLR 82 75 79% 89 29.88 1011.6
14 01:53 SE 7 10.00 Fair CLR 82.9 75 77% 90 29.88 1011.8
14 00:53 SE 9 10.00 Partly Cloudy SCT025 84 75.9 89.1 82.9 77% 93 29.9 1012.3
13 23:53 SE 8 10.00 Mostly Cloudy FEW020 SCT026 BKN033 84.9 77 77% 95 29.9 1012.4
13 22:53 E 10 10.00 Fair CLR 82.9 75 77% 90 29.88 1011.9
13 21:53 E 13 10.00 Fair CLR 86 77 75% 97 29.87 1011.2
13 20:53 E 14 10.00 A Few Clouds FEW023 86 75.9 72% 96 29.85 1010.9
13 19:53 E 16 10.00 Fair CLR 87.1 75.9 70% 98 29.85 1010.9
13 18:53 E 16 10.00 Fair CLR 89.1 75 95 89.1 63% 99 29.84 1010.5
13 17:53 E 17 10.00 Fair CLR 91 75 59% 102 29.85 1010.6
13 16:53 E 17 10.00 Fair CLR 91.9 73 54% 101 29.85 1010.7
13 15:53 E 14 G 22 10.00 Fair CLR 93 73.9 54% 103 29.85 1010.9
13 14:53 E 15 10.00 Fair CLR 93 75 56% 104 29.87 1011.4
13 13:53 E 14 G 23 10.00 Fair CLR 95 73.9 51% 106 29.88 1011.7
13 12:53 E 14 10.00 Fair CLR 93.9 73 95 79 51% 103 29.89 1012.2
13 11:53 E 12 10.00 Fair CLR 91.9 75 58% 103 29.9 1012.3
13 10:53 S 12 10.00 Fair CLR 93 72 50% 101 29.9 1012.5
13 09:53 S 8 10.00 Fair CLR 90 73 58% 98 29.9 1012.6
13 08:53 S 8 10.00 Fair CLR 86 73.9 67% 94 29.91 1012.7
13 07:53 S 3 10.00 Fair CLR 84 75.9 77% 93 29.89 1012.1
13 06:53 S 3 10.00 Partly Cloudy SCT024 79 75 84 78.1 88% 83 29.87 1011.5
13 05:53 S 3 10.00 A Few Clouds FEW100 79 73.9 85% 83 29.86 1010.9
13 04:53 S 3 10.00 Fair CLR 80.1 75 85% 85 29.85 1010.7
13 03:53 S 3 10.00 A Few Clouds FEW022 81 75.9 85% 87 29.85 1010.7
13 02:53 SE 6 10.00 Fair CLR 82.9 75.9 79% 91 29.86 1011.0
13 01:53 SE 8 10.00 Fair CLR 84 75.9 77% 93 29.87 1011.4
13 00:53 SE 8 10.00 Partly Cloudy SCT024 84 77 89.1 84 80% 94 29.88 1011.8
12 23:53 SE 9 10.00 A Few Clouds FEW022 84 75.9 77% 93 29.89 1012.0
12 22:53 SE 12 10.00 Fair CLR 84.9 75.9 75% 94 29.88 1011.7
12 21:53 SE 9 10.00 Fair CLR 84.9 77 77% 95 29.86 1011.1
12 20:53 E 9 10.00 Fair CLR 86 77 75% 97 29.86 1011.0
Date Time (cdt) Wind (mph) Vis. (mi.) Weather Sky Cond. Air Dwpt Max. Min. Relative Humidity Wind Chill (°F) Heat Index (°F) altimeter (in) sea level (mb) 1 hr 3 hr 6 hr
6 hour
Temperature (ºF) Pressure Precipitation (in)